Voltar ao catálogo

STARLINK-32750

AtivoComunicaçõesVLEO
NORAD 62572·PAYLOAD·🇺🇸 United States

Lançado Jan 10, 2025 de Cape Canaveral Space Force Station

Loading…

Próximas Passagens (próximas 24 horas)

TLE

AtualizadoSource: CelesTrak SupGP

Época: Sep 14, 2026, 22:50 UTC

1 62572C 25006U   26257.95187500  .00015989  00000+0  57921-3 0  2577
2 62572  43.0006 303.3280 0001467 263.3069  49.8098 15.27565237    15

Acompanhe STARLINK-32750 em tempo real com AllMySat

Download on the App Store